Regional Weather Roundup
Issued by NWS

Home | Current Version | Previous Version | Graphics & Text | Print | Product List | Glossary On
Versions: 1 2 3 4 5 6 7 8 9 10 11 12 13 14 15 16 17 18 19 20 21 22 23 24 25 26 27 28 29 30 31 32 33 34 35 36 37 38 39 40 41 42 43 44 45 46 47 48 49 50
000
ASUS43 KFSD 230110
RWRSD

WEATHER ROUNDUP FOR SOUTH DAKOTA
NATIONAL WEATHER SERVICE SIOUX FALLS SD
700 PM CST WED NOV 22 2017

NOTE: "FAIR" INDICATES FEW OR NO CLOUDS BELOW 12,000 FEET WITH NO
SIGNIFICANT WEATHER AND/OR OBSTRUCTIONS TO VISIBILITY.


SDZ001>005-009-010-012>017-230200-
NORTHWEST AND NORTH CENTRAL SOUTH DAKOTA

CITY           SKY/WX    TMP DP  RH WIND       PRES   REMARKS
BUFFALO          N/A     51  38  60 NW13      29.94R
FAITH            N/A     51  38  60 NW6       29.97R
MOBRIDGE       CLEAR     46  35  65 W5        29.89R
$$

SDZ012>016-024>037-041>051-057-063-072>074-230200-
SOUTHWEST AND SOUTH CENTRAL SOUTH DAKOTA

CITY           SKY/WX    TMP DP  RH WIND       PRES   REMARKS
RAPID CTY ARPT CLEAR     51  36  56 W3        30.04S
PIERRE         CLOUDY    56  38  50 W10       29.94R
CUSTER         CLEAR     52  34  50 NW6       30.14S
ELLSWORTH AFB  CLEAR     50  37  61 NW9       30.03S
PHILIP         CLEAR     51  39  63 W7        30.00R
PINE RIDGE     CLOUDY    57  37  47 CALM      30.07S
SPEARFISH      FAIR      59  39  47 W14       30.07R
WINNER         FAIR      53  38  56 SW9       29.98R
$$

SDZ004>011-016>023-039-040-230200-
NORTHEAST SOUTH DAKOTA

CITY           SKY/WX    TMP DP  RH WIND       PRES   REMARKS
ABERDEEN       CLOUDY    28  20  71 S6        29.90S WCI  22
WATERTOWN      CLEAR     28  20  71 S7        29.90S WCI  21
BROOKINGS      CLEAR     33  19  56 S6        29.93F WCI  28
SISSETON         N/A     36  23  59 CALM      29.88F
$$

SDZ017-020-022-023-036>040-048>070-230200-
SOUTHEAST SOUTH DAKOTA

CITY           SKY/WX    TMP DP  RH WIND       PRES   REMARKS
SIOUX FALLS    PTCLDY    39  21  48 SW14G20   29.96F
HURON          CLEAR     39  24  55 S10       29.91F
CHAMBERLAIN    CLOUDY    47  34  60 SW7       29.94S
MITCHELL       CLEAR     40  25  55 S7        29.93F
YANKTON        CLEAR     43  23  45 S8        29.96F
$$

ABBREVIATIONS USED IN REMARKS
   TC - TEMPERATURE IN CELSIUS
  WCI - WIND CHILL INDEX
   HX - HEAT INDEX
  VSB - VISIBILITY




USA.gov is the U.S. government's official web portal to all federal, state and local government web resources and services.